Regional Weather Roundup
Issued by NWS

Home | Current Version | Previous Version | Text Only | Print | Product List | Glossary On
Versions: 1 2 3 4 5 6 7 8 9 10 11 12 13 14 15 16 17 18 19 20 21 22 23 24 25 26 27 28 29 30 31 32 33 34 35 36 37 38 39 40 41 42 43 44 45 46 47 48 49 50
000
ASUS43 KDMX 051107
RWRIA

WEATHER ROUNDUP FOR IOWA
NATIONAL WEATHER SERVICE DES MOINES IA
600 AM CDT TUE MAY 05 2015

NOTE: "FAIR" INDICATES FEW OR NO CLOUDS BELOW 12,000 FEET WITH NO
SIGNIFICANT WEATHER AND/OR OBSTRUCTIONS TO VISIBILITY.

* - THESE STATIONS ARE NOT NWS STATIONS...THUS NOT UNDER NWS
QUALITY CONTROL.  THEY ALSO DO NOT REPORT WEATHER SUCH
AS PRECIPITATION OR FOG.

IAZ001>003-012>014-020>022-031>034-043>046-051200-
   NORTHWEST IOWA

CITY           SKY/WX    TMP DP  RH WIND       PRES   REMARKS
CARROLL *      CLOUDY    57  57 100 SE6       30.06S FOG
CHEROKEE *     CLOUDY    54  48  82 NE7       30.08F
DENISON *      CLOUDY    55  55 100 NE7       30.05R FOG
LE MARS *      CLOUDY    59  41  51 NE5       30.09S
ORANGE CITY *  CLOUDY    55  37  50 E7        30.09S
SHELDON *      MOCLDY    54  37  54 NE9       30.09S
SIOUX CITY     LGT RAIN  54  49  83 E9        30.07S
SPENCER        CLOUDY    56  42  59 E13       30.10F
STORM LAKE *   CLOUDY    52  50  93 NE14      30.08F
$$

IAZ055>058-069>071-079>083-090>094-051200-
   SOUTHWEST IOWA

CITY           SKY/WX    TMP DP  RH WIND       PRES   REMARKS
ATLANTIC *     CLOUDY    61  61 100 SE6       30.08R
AUDUBON *      PTCLDY    57  54  88 S6        30.08R FOG
CLARINDA *       N/A     61  61 100 SE6       30.09S
COUNCIL BLFS * CLOUDY    59  59 100 SE7       30.07R FOG
CRESTON *      CLOUDY    59  59 100 S6        30.10S FOG
HARLAN  *      CLOUDY    59  59 100 SE6       30.10R FOG
LAMONI         FOG       59  57  93 CALM      30.11R VSB 1/2
RED OAK *      CLOUDY    59  59 100 CALM      30.08S
SHENANDOAH *   CLOUDY    61  61 100 CALM      30.08R
$$

IAZ047>049-059>061-072>074-084-051200-
   CENTRAL IOWA

CITY           SKY/WX    TMP DP  RH WIND       PRES   REMARKS
AMES           CLOUDY    60  58  92 E6        30.07F FOG
ANKENY *       CLOUDY    61  61 100 SE3       30.08S FOG
CHARITON *     MOCLDY    59  59 100 S6        30.10S
DES MOINES     CLOUDY    62  60  93 S5        30.08S FOG
GRINNELL*      CLOUDY    59  57  94 CALM      30.09S
KNOXVILLE *    MOCLDY    59  59 100 S8        30.08F
MARSHALLTOWN   LGT RAIN  60  59  96 S5        30.08S
PELLA *        CLOUDY    59  59 100 S3        30.09S
PERRY *        RAIN      59  59 100 SE6       30.08R
$$

IAZ004>006-015-016-023>025-035-036-051200-
   NORTH CENTRAL IOWA

CITY           SKY/WX    TMP DP  RH WIND       PRES   REMARKS
ALGONA *       CLOUDY    57  43  58 E8        30.11S
CLARION *      LGT RAIN  55  52  88 E10       30.10R
ESTHERVILLE    CLOUDY    52  42  69 E8        30.12R
FORT DODGE *   CLOUDY    54  48  82 E6        30.09S
MASON CITY     CLOUDY    56  46  69 NE7       30.12S
FOREST CITY *  CLOUDY    54  45  71 NE7       30.12S
IOWA FALLS *   LGT RAIN  57  55  94 NE3       30.11R
$$

IAZ007>011-017>019-026>030-037>042-050>054-066-051200-
   NORTHEAST IOWA

CITY           SKY/WX    TMP DP  RH WIND       PRES   REMARKS
CEDAR RAPIDS   CLOUDY    61  61 100 SE5       30.08S FOG
CHARLES CITY * CLOUDY    57  55  94 E12       30.13R
CLINTON *      CLOUDY    57  55  94 E14       30.13R
DECORAH *      CLOUDY    52  48  87 E15       30.15R
DUBUQUE        LGT RAIN  54  52  93 E9        30.13S FOG
MONTICELLO *   CLOUDY    59  59 100 E8        30.11S
OELWEIN *      CLOUDY    57  57 100 E7        30.13R FOG
WATERLOO       LGT RAIN  61  60  97 SE12      30.09R
$$

IAZ064-065-067-068-078-051200-
   EAST CENTRAL IOWA

CITY           SKY/WX    TMP DP  RH WIND       PRES   REMARKS
DAVENPORT      CLOUDY    57  56  96 E10       30.10R FOG
IOWA CITY      CLOUDY    62  62 100 CALM      30.10R
MT. PLEASANT * MOCLDY    59  59 100 S3        30.11R FOG
MUSCATINE *    CLOUDY    63  61  94 CALM      30.10R
QUAD CITIES    CLOUDY    58  57  97 E7        30.09R FOG
$$

IAZ062-063-075>077-085>089-095>099-051200-
   SOUTHEAST IOWA

CITY           SKY/WX    TMP DP  RH WIND       PRES   REMARKS
BURLINGTON     CLOUDY    61  61 100 SE7       30.10R
FAIRFIELD *    CLOUDY    61  59  94 SW3       30.11R FOG
FORT MADISON * CLEAR     61  61 100 CALM      30.11R FOG
KEOKUK *       MOCLDY    61  61 100 CALM      30.10R FOG
OSKALOOSA *      N/A     59  57  94 SW8       30.10S FOG
CENTERVILLE *  CLOUDY    59  59 100 CALM      30.13S FOG
OTTUMWA        CLOUDY    59  59 100 SW5       30.10R
WASHINGTON *   CLOUDY    63  63 100 S6        30.10R FOG
$$

ABBREVIATIONS USED IN REMARKS
   TC - TEMPERATURES IN CELSIUS
  WCI - WIND CHILL INDEX
   HX - HEAT INDEX
  VSB - VISIBILITY
$$



USA.gov is the U.S. government's official web portal to all federal, state and local government web resources and services.